This is the latest recevied weather packets stored in our database for station/object HP3ICC-23. If no packets are shown the sender has not sent any weather packets the latest 1 day(s).
| Time | Temp. | Humidity | Pressure | Rain* | Wind** | Luminosity | Snow |
|---|---|---|---|---|---|---|---|
| 1778102682 | 19.44° C | 74% | 1011 hPa | 0 mm | - | - | - |
| 1778100281 | 19.44° C | 76% | 1011 hPa | 0 mm | - | - | - |
| 1778099020 | 19.44° C | 75% | 1012 hPa | 0 mm | - | - | - |
| 1778096619 | 19.44° C | 75% | 1012 hPa | 0.25 mm | - | - | - |
| 1778095418 | 19.44° C | 75% | 1013 hPa | 0 mm | - | - | - |
| 1778094278 | 20° C | 75% | 1013 hPa | 0.51 mm | - | - | - |
| 1778090616 | 19.44° C | 75% | 1013 hPa | 0 mm | - | - | - |
| 1778088215 | 20° C | 72% | 1013 hPa | 0 mm | - | - | - |
| 1778085814 | 20° C | 70% | 1013 hPa | 0 mm | - | - | - |
| 1778084674 | 20° C | 72% | 1013 hPa | 0 mm | - | - | - |
| 1778083473 | 20° C | 72% | 1013 hPa | 0 mm | - | - | - |
| 1778083413 | 20° C | 72% | 1013 hPa | 0 mm | - | - | - |
| 1778081072 | 18.33° C | 77% | 1013 hPa | 0 mm | - | - | - |
| 1778078671 | 18.33° C | 80% | 1013 hPa | 0 mm | - | - | - |
| 1778077470 | 18.89° C | 77% | 1013 hPa | 0 mm | - | - | - |
| 1778076270 | 18.33° C | 79% | 1013 hPa | 0 mm | - | - | - |
| 1778072668 | 16.11° C | 86% | 1012 hPa | 0 mm | - | - | - |
| 1778072608 | 16.11° C | 86% | 1012 hPa | 0 mm | - | - | - |
| 1778071408 | 14.44° C | 89% | 1013 hPa | 0 mm | - | - | - |
| 1778070207 | 15° C | 89% | 1012 hPa | 0 mm | - | - | - |
| 1778069066 | 15.56° C | 88% | 1012 hPa | 0 mm | - | - | - |
| 1778069006 | 15.56° C | 88% | 1012 hPa | 0 mm | - | - | - |
| 1778066665 | 13.33° C | 86% | 1012 hPa | 0 mm | - | - | - |
| 1778065465 | 13.89° C | 86% | 1012 hPa | 0 mm | - | - | - |
| 1778063064 | 13.89° C | 87% | 1012 hPa | 0 mm | - | - | - |
* Rain latest hour (hover to see other rain measurements)
** Current wind speed in m/s (hover to see current wind gust speed)